,,,PA_Meas_PMT16A,,PR_Meas_QMR101_102,,RH_Meas_QMH101,,SR_Meas_QMS101,,TA_Meas_QMH101,,GenWind,,GenWind,
date,time,status,PA,status,PR,status,RH,status,SR,status,TA,status,DirAvg,status,SpdAvg,
2009-09-24, 00:00:04,VALID,1001.1,VALID,0,VALID,79.9432,VALID,0,VALID,23.9372,VALID,12,VALID,0.885938,
2009-09-24, 00:01:04,VALID,1001.09,VALID,0,VALID,80.7061,VALID,0,VALID,23.8591,VALID,9,VALID,0.973437,
2009-09-24, 00:02:04,VALID,1001.09,VALID,0,VALID,81.5606,VALID,0,VALID,23.7597,VALID,4,VALID,1.05234,
2009-09-24, 00:03:04,VALID,1001.08,VALID,0,VALID,82.1329,VALID,0,VALID,23.6835,VALID,357,VALID,1.04062,
2009-09-24, 00:04:04,VALID,1001.07,VALID,0,VALID,82.3083,VALID,0,VALID,23.6054,VALID,354,VALID,0.848828,
2009-09-24, 00:05:04,VALID,1001.04,VALID,0,VALID,82.728,VALID,0,VALID,23.5469,VALID,354,VALID,0.632422,
2009-09-24, 00:06:04,VALID,1001.03,VALID,0,VALID,82.2168,VALID,0,VALID,23.4866,VALID,354,VALID,0.110547,
2009-09-24, 00:07:04,VALID,1001.03,VALID,0,VALID,81.7972,VALID,0,VALID,23.4884,VALID,354,VALID,0.325391,
2009-09-24, 00:08:04,VALID,1000.99,VALID,0,VALID,81.5759,VALID,0,VALID,23.4475,VALID,354,VALID,0.416797,
2009-09-24, 00:09:04,VALID,1000.95,VALID,0,VALID,81.0418,VALID,0,VALID,23.4884,VALID,354,VALID,0.337891,
2009-09-24, 00:10:04,VALID,1000.92,VALID,0,VALID,81.1563,VALID,0,VALID,23.5664,VALID,354,VALID,0.314063,
2009-09-24, 00:11:04,VALID,1000.92,VALID,0,VALID,80.9655,VALID,0,VALID,23.5841,VALID,354,VALID,0.553516,
2009-09-24, 00:12:04,VALID,1000.9,VALID,0,VALID,80.1873,VALID,0,VALID,23.6445,VALID,89,VALID,0.707031,
2009-09-24, 00:13:04,VALID,1000.89,VALID,0,VALID,80.0576,VALID,0,VALID,23.7012,VALID,89,VALID,0.713672,
2009-09-24, 00:14:04,VALID,1000.89,VALID,0,VALID,79.8211,VALID,0,VALID,23.7207,VALID,88,VALID,0.528125,
2009-09-24, 00:15:04,VALID,1000.86,VALID,0,VALID,79.6532,VALID,0,VALID,23.7384,VALID,87,VALID,0.818359,
2009-09-24, 00:16:04,VALID,1000.81,VALID,0,VALID,79.7372,VALID,0,VALID,23.7988,VALID,87,VALID,0.670313,
2009-09-24, 00:17:04,VALID,1000.79,VALID,0,VALID,79.1344,VALID,0,VALID,23.797,VALID,88,VALID,0.638281,
2009-09-24, 00:18:04,VALID,1000.8,VALID,0,VALID,79.287,VALID,0,VALID,23.8573,VALID,76,VALID,0.598437,
2009-09-24, 00:19:04,VALID,1000.78,VALID,0,VALID,80.1339,VALID,0,VALID,23.8768,VALID,68,VALID,0.830078,
2009-09-24, 00:20:04,VALID,1000.77,VALID,0,VALID,80.6222,VALID,0,VALID,23.8378,VALID,63,VALID,0.858984,
2009-09-24, 00:21:04,VALID,1000.77,VALID,0,VALID,81.08,VALID,0,VALID,23.7597,VALID,55,VALID,0.822656,
2009-09-24, 00:22:04,VALID,1000.74,VALID,0,VALID,81.4233,VALID,0,VALID,23.7012,VALID,51,VALID,0.788281,
2009-09-24, 00:23:04,VALID,1000.75,VALID,0,VALID,81.9269,VALID,0.112286,VALID,23.6409,VALID,38,VALID,0.909375,
2009-09-24, 00:24:04,VALID,1000.76,VALID,0,VALID,82.377,VALID,0,VALID,23.5628,VALID,24,VALID,1.0168,
2009-09-24, 00:25:04,VALID,1000.75,VALID,0,VALID,82.85,VALID,0,VALID,23.4653,VALID,5,VALID,1.11172,
2009-09-24, 00:26:04,VALID,1000.71,VALID,0,VALID,83.0866,VALID,0,VALID,23.389,VALID,356,VALID,1.1,
2009-09-24, 00:27:04,VALID,1000.71,VALID,0,VALID,83.1705,VALID,0,VALID,23.3092,VALID,356,VALID,1.12617,
2009-09-24, 00:28:04,VALID,1000.7,VALID,0,VALID,83.1629,VALID,0,VALID,23.2719,VALID,356,VALID,1.08867,
2009-09-24, 00:29:04,VALID,1000.69,VALID,0,VALID,83.2086,VALID,0,VALID,23.2524,VALID,356,VALID,0.860547,
2009-09-24, 00:30:04,VALID,1000.69,VALID,0,VALID,83.4909,VALID,0,VALID,23.2312,VALID,356,VALID,0.603125,
2009-09-24, 00:31:04,VALID,1000.65,VALID,0,VALID,83.2544,VALID,0,VALID,23.2524,VALID,356,VALID,0.594531,
2009-09-24, 00:32:04,VALID,1000.64,VALID,0,VALID,83.3383,VALID,0,VALID,23.2524,VALID,356,VALID,0.328516,
2009-09-24, 00:33:04,VALID,1000.63,VALID,0,VALID,83.2697,VALID,0,VALID,23.2312,VALID,356,VALID,0.321094,
2009-09-24, 00:34:04,VALID,1000.63,VALID,0,VALID,83.2926,VALID,0,VALID,23.2312,VALID,356,VALID,0.388281,
2009-09-24, 00:35:04,VALID,1000.59,VALID,0,VALID,83.3841,VALID,0,VALID,23.2312,VALID,356,VALID,0.263281,
2009-09-24, 00:36:04,VALID,1000.57,VALID,0,VALID,83.4146,VALID,0,VALID,23.2329,VALID,356,VALID,0.274219,
2009-09-24, 00:37:04,VALID,1000.59,VALID,0,VALID,83.5215,VALID,0,VALID,23.2117,VALID,356,VALID,0.304297,
2009-09-24, 00:38:04,VALID,1000.56,VALID,0,VALID,83.7427,VALID,0,VALID,23.1726,VALID,356,VALID,0.462109,
2009-09-24, 00:39:04,VALID,1000.54,VALID,0,VALID,83.8953,VALID,0,VALID,23.1336,VALID,356,VALID,0.498047,
2009-09-24, 00:40:04,VALID,1000.54,VALID,0,VALID,83.9106,VALID,0,VALID,23.1744,VALID,356,VALID,0.410937,
2009-09-24, 00:41:04,VALID,1000.53,VALID,0,VALID,84.0632,VALID,0,VALID,23.1159,VALID,356,VALID,0.310156,
2009-09-24, 00:42:04,VALID,1000.54,VALID,0,VALID,84.3378,VALID,0,VALID,23.0946,VALID,356,VALID,0.359375,
2009-09-24, 00:43:04,VALID,1000.51,VALID,0,VALID,84.4065,VALID,0,VALID,23.0964,VALID,356,VALID,0.273828,
2009-09-24, 00:44:04,VALID,1000.51,VALID,0,VALID,84.376,VALID,0,VALID,23.0769,VALID,356,VALID,0.259375,
2009-09-24, 00:45:04,VALID,1000.5,VALID,0,VALID,84.2081,VALID,0,VALID,23.0964,VALID,356,VALID,0.213281,
2009-09-24, 00:46:04,VALID,1000.51,VALID,0,VALID,84.086,VALID,0,VALID,23.1176,VALID,356,VALID,0.201562,
2009-09-24, 00:47:04,VALID,1000.49,VALID,0,VALID,84.0784,VALID,0,VALID,23.1176,VALID,356,VALID,0.297656,
2009-09-24, 00:48:04,VALID,1000.49,VALID,0,VALID,84.0021,VALID,0,VALID,23.0964,VALID,356,VALID,0.179688,
2009-09-24, 00:49:04,VALID,1000.47,VALID,0,VALID,84.0403,VALID,0,VALID,23.0964,VALID,356,VALID,0.135547,
2009-09-24, 00:50:04,VALID,1000.46,VALID,0,VALID,84.1471,VALID,0,VALID,23.0769,VALID,356,VALID,0,
2009-09-24, 00:51:04,VALID,1000.47,VALID,0,VALID,84.2463,VALID,0,VALID,23.0378,VALID,356,VALID,0,
2009-09-24, 00:52:04,VALID,1000.48,VALID,0,VALID,84.498,VALID,0,VALID,23.0591,VALID,356,VALID,0.125,
2009-09-24, 00:53:04,VALID,1000.44,VALID,0,VALID,84.5972,VALID,0,VALID,22.9988,VALID,356,VALID,0.332031,
2009-09-24, 00:54:04,VALID,1000.47,VALID,0,VALID,84.2081,VALID,0,VALID,22.9793,VALID,356,VALID,0.388281,
2009-09-24, 00:55:04,VALID,1000.47,VALID,0,VALID,84.0403,VALID,0,VALID,23.0201,VALID,356,VALID,0.480078,
2009-09-24, 00:56:04,VALID,1000.49,VALID,0,VALID,83.1323,VALID,0,VALID,23.0201,VALID,51,VALID,0.655469,
2009-09-24, 00:57:04,VALID,1000.43,VALID,0,VALID,82.9035,VALID,0,VALID,23.0201,VALID,67,VALID,0.673437,
2009-09-24, 00:58:04,VALID,1000.46,VALID,0,VALID,83.0332,VALID,0,VALID,23.0591,VALID,77,VALID,0.573047,
2009-09-24, 00:59:04,VALID,1000.46,VALID,0,VALID,83.6359,VALID,0,VALID,23.0378,VALID,77,VALID,0.621094,
2009-09-24, 01:00:04,VALID,1000.47,VALID,0,VALID,84.4523,VALID,0,VALID,23.0183,VALID,77,VALID,0.645703,
2009-09-24, 01:01:04,VALID,1000.47,VALID,0,VALID,85.3449,VALID,0,VALID,22.9988,VALID,77,VALID,0.774609,
2009-09-24, 01:02:04,VALID,1000.46,VALID,0,VALID,85.7417,VALID,0,VALID,22.9598,VALID,77,VALID,0.776563,
2009-09-24, 01:03:04,VALID,1000.46,VALID,0,VALID,85.8943,VALID,0,VALID,22.9615,VALID,77,VALID,0.736328,
2009-09-24, 01:04:04,VALID,1000.45,VALID,0,VALID,85.7951,VALID,0,VALID,22.9225,VALID,67,VALID,0.810156,
2009-09-24, 01:05:04,VALID,1000.44,VALID,0,VALID,85.5051,VALID,0,VALID,22.903,VALID,63,VALID,0.855859,
2009-09-24, 01:06:04,VALID,1000.42,VALID,0,VALID,85.3678,VALID,0,VALID,22.8623,VALID,63,VALID,0.860547,
2009-09-24, 01:07:04,VALID,1000.41,VALID,0,VALID,85.3297,VALID,0,VALID,22.864,VALID,63,VALID,0.934766,
2009-09-24, 01:08:04,VALID,1000.42,VALID,0,VALID,85.3144,VALID,0,VALID,22.864,VALID,63,VALID,1.03398,
2009-09-24, 01:09:04,VALID,1000.41,VALID,0,VALID,85.1237,VALID,0,VALID,22.864,VALID,58,VALID,1.09844,
2009-09-24, 01:10:04,VALID,1000.4,VALID,0,VALID,85.1008,VALID,0,VALID,22.8427,VALID,49,VALID,1.12734,
2009-09-24, 01:11:04,VALID,1000.44,VALID,0,VALID,85.5128,VALID,0,VALID,22.825,VALID,44,VALID,1.15664,
2009-09-24, 01:12:04,VALID,1000.46,VALID,0,VALID,86.0469,VALID,0,VALID,22.786,VALID,35,VALID,1.15313,
2009-09-24, 01:13:04,VALID,1000.45,VALID,0,VALID,86.4665,VALID,0,VALID,22.7257,VALID,33,VALID,0.967188,
2009-09-24, 01:14:04,VALID,1000.45,VALID,0,VALID,86.7411,VALID,0,VALID,22.6884,VALID,33,VALID,0.972266,
2009-09-24, 01:15:04,VALID,1000.45,VALID,0,VALID,86.9777,VALID,0,VALID,22.6477,VALID,33,VALID,0.712891,
2009-09-24, 01:16:04,VALID,1000.47,VALID,0,VALID,87.0463,VALID,0,VALID,22.5892,VALID,24,VALID,0.539844,
2009-09-24, 01:17:04,VALID,1000.5,VALID,0,VALID,87.2523,VALID,0,VALID,22.5306,VALID,24,VALID,0.534375,
2009-09-24, 01:18:04,VALID,1000.45,VALID,0,VALID,87.5499,VALID,0,VALID,22.5128,VALID,24,VALID,0.553516,
2009-09-24, 01:19:04,VALID,1000.43,VALID,0,VALID,88,VALID,0,VALID,22.4933,VALID,24,VALID,0.741406,
2009-09-24, 01:20:04,VALID,1000.42,VALID,0,VALID,88.2213,VALID,0,VALID,22.4933,VALID,24,VALID,0.590625,
2009-09-24, 01:21:04,VALID,1000.4,VALID,0,VALID,88.0687,VALID,0,VALID,22.4933,VALID,24,VALID,0.4625,
2009-09-24, 01:22:04,VALID,1000.4,VALID,0,VALID,87.9085,VALID,0,VALID,22.4933,VALID,24,VALID,0.548047,
2009-09-24, 01:23:04,VALID,1000.37,VALID,0,VALID,87.7177,VALID,0,VALID,22.4738,VALID,24,VALID,0.576953,
2009-09-24, 01:24:04,VALID,1000.35,VALID,0,VALID,87.3439,VALID,0,VALID,22.4738,VALID,32,VALID,0.525,
2009-09-24, 01:25:04,VALID,1000.34,VALID,0,VALID,87.2066,VALID,0,VALID,22.4933,VALID,32,VALID,0.459375,
2009-09-24, 01:26:04,VALID,1000.33,VALID,0,VALID,87.1913,VALID,0,VALID,22.4916,VALID,32,VALID,0.296484,
2009-09-24, 01:27:04,VALID,1000.32,VALID,0,VALID,86.9014,VALID,0,VALID,22.5323,VALID,32,VALID,0.480078,
2009-09-24, 01:28:04,VALID,1000.28,VALID,0,VALID,86.8937,VALID,0,VALID,22.5111,VALID,32,VALID,0.271094,
2009-09-24, 01:29:04,VALID,1000.3,VALID,0,VALID,87.0234,VALID,0,VALID,22.5111,VALID,32,VALID,0.480078,
2009-09-24, 01:30:04,VALID,1000.27,VALID,0,VALID,87.0463,VALID,0,VALID,22.5111,VALID,34,VALID,0.596875,
2009-09-24, 01:31:04,VALID,1000.27,VALID,0,VALID,86.7488,VALID,0,VALID,22.5289,VALID,44,VALID,0.631641,
2009-09-24, 01:32:04,VALID,1000.25,VALID,0,VALID,86.1613,VALID,0,VALID,22.5696,VALID,50,VALID,0.627734,
2009-09-24, 01:33:04,VALID,1000.25,VALID,0,VALID,85.7264,VALID,0,VALID,22.5696,VALID,62,VALID,0.718359,
2009-09-24, 01:34:04,VALID,1000.27,VALID,0,VALID,85.4136,VALID,0,VALID,22.5874,VALID,66,VALID,0.785156,
2009-09-24, 01:35:04,VALID,1000.27,VALID,0,VALID,84.7193,VALID,0.112286,VALID,22.6264,VALID,67,VALID,0.769922,
2009-09-24, 01:36:04,VALID,1000.27,VALID,0,VALID,84.7422,VALID,0.112286,VALID,22.6867,VALID,73,VALID,0.772266,
2009-09-24, 01:37:04,VALID,1000.23,VALID,0,VALID,84.5286,VALID,0,VALID,22.724,VALID,73,VALID,0.866797,
2009-09-24, 01:38:04,VALID,1000.23,VALID,0,VALID,83.8953,VALID,0,VALID,22.7257,VALID,73,VALID,0.832812,
2009-09-24, 01:39:04,VALID,1000.22,VALID,0,VALID,84.086,VALID,0,VALID,22.7647,VALID,73,VALID,0.8,
2009-09-24, 01:40:04,VALID,1000.18,VALID,0,VALID,83.5596,VALID,0,VALID,22.7435,VALID,73,VALID,0.887891,
2009-09-24, 01:41:04,VALID,1000.18,VALID,0,VALID,84.1166,VALID,0,VALID,22.7842,VALID,73,VALID,0.935156,
2009-09-24, 01:42:04,VALID,1000.18,VALID,0,VALID,84.7803,VALID,0.112286,VALID,22.7825,VALID,75,VALID,0.960156,
2009-09-24, 01:43:04,VALID,1000.15,VALID,0,VALID,85.3373,VALID,0,VALID,22.7647,VALID,79,VALID,0.861328,
2009-09-24, 01:44:04,VALID,1000.13,VALID,0,VALID,85.9553,VALID,0,VALID,22.7435,VALID,82,VALID,0.863281,
2009-09-24, 01:45:04,VALID,1000.12,VALID,0,VALID,86.4589,VALID,0,VALID,22.724,VALID,86,VALID,0.8,
2009-09-24, 01:46:04,VALID,1000.15,VALID,0,VALID,86.8327,VALID,0,VALID,22.7257,VALID,87,VALID,0.882031,
2009-09-24, 01:47:04,VALID,1000.1,VALID,0,VALID,87.2905,VALID,0,VALID,22.7062,VALID,87,VALID,0.855859,
2009-09-24, 01:48:04,VALID,1000.08,VALID,0,VALID,87.9466,VALID,0,VALID,22.7062,VALID,91,VALID,0.979688,
2009-09-24, 01:49:04,VALID,1000.1,VALID,0,VALID,88.3281,VALID,0,VALID,22.7257,VALID,92,VALID,0.914844,
2009-09-24, 01:50:04,VALID,1000.09,VALID,0,VALID,88.5875,VALID,0,VALID,22.7045,VALID,93,VALID,0.742969,
2009-09-24, 01:51:04,VALID,1000.09,VALID,0,VALID,88.8851,VALID,0,VALID,22.685,VALID,93,VALID,0.744531,
2009-09-24, 01:52:04,VALID,1000.08,VALID,0,VALID,88.9232,VALID,0,VALID,22.6867,VALID,93,VALID,0.668359,
2009-09-24, 01:53:04,VALID,1000.08,VALID,0,VALID,88.9156,VALID,0,VALID,22.646,VALID,93,VALID,0.588281,
2009-09-24, 01:54:04,VALID,1000.08,VALID,0,VALID,88.908,VALID,0,VALID,22.6672,VALID,93,VALID,0.389844,
2009-09-24, 01:55:04,VALID,1000.08,VALID,0,VALID,88.9537,VALID,0.112286,VALID,22.6477,VALID,93,VALID,0.226563,
2009-09-24, 01:56:04,VALID,1000.09,VALID,0,VALID,88.9385,VALID,0,VALID,22.5874,VALID,93,VALID,0.141406,
2009-09-24, 01:57:04,VALID,1000.08,VALID,0,VALID,89.0377,VALID,0,VALID,22.5892,VALID,93,VALID,0.0320312,
2009-09-24, 01:58:04,VALID,1000.07,VALID,0,VALID,89.03,VALID,0,VALID,22.5501,VALID,93,VALID,0.216797,
2009-09-24, 01:59:04,VALID,1000.09,VALID,0,VALID,89.0453,VALID,0,VALID,22.5306,VALID,93,VALID,0.232812,
2009-09-24, 02:00:04,VALID,1000.08,VALID,0,VALID,89.0911,VALID,0,VALID,22.5094,VALID,90,VALID,0.232031,
2009-09-24, 02:01:04,VALID,1000.09,VALID,0,VALID,89.0377,VALID,0,VALID,22.5306,VALID,90,VALID,0.265234,
2009-09-24, 02:02:04,VALID,1000.12,VALID,0,VALID,88.7325,VALID,0,VALID,22.5306,VALID,90,VALID,0.401172,
2009-09-24, 02:03:04,VALID,1000.12,VALID,0,VALID,88.5417,VALID,0,VALID,22.5111,VALID,90,VALID,0.384766,
2009-09-24, 02:04:04,VALID,1000.13,VALID,0,VALID,88.4502,VALID,0,VALID,22.5111,VALID,90,VALID,0.385547,
2009-09-24, 02:05:04,VALID,1000.09,VALID,0,VALID,88.0306,VALID,0,VALID,22.5111,VALID,90,VALID,0.490625,
2009-09-24, 02:06:04,VALID,1000.09,VALID,0,VALID,87.466,VALID,0,VALID,22.4526,VALID,28,VALID,0.619141,
2009-09-24, 02:07:04,VALID,1000.11,VALID,0,VALID,87.1608,VALID,0.112286,VALID,22.4331,VALID,19,VALID,0.555859,
2009-09-24, 02:08:04,VALID,1000.12,VALID,0,VALID,87.1989,VALID,0,VALID,22.3746,VALID,19,VALID,0.451953,
2009-09-24, 02:09:04,VALID,1000.11,VALID,0,VALID,87.115,VALID,0,VALID,22.3551,VALID,19,VALID,0.471484,
2009-09-24, 02:10:04,VALID,1000.12,VALID,0,VALID,87.0311,VALID,0,VALID,22.3356,VALID,19,VALID,0.517187,
2009-09-24, 02:11:04,VALID,1000.12,VALID,0,VALID,87.5346,VALID,0,VALID,22.3356,VALID,19,VALID,0.662891,
2009-09-24, 02:12:04,VALID,1000.15,VALID,0,VALID,87.6491,VALID,0,VALID,22.3356,VALID,19,VALID,0.691797,
2009-09-24, 02:13:04,VALID,1000.15,VALID,0,VALID,87.588,VALID,0,VALID,22.3568,VALID,19,VALID,0.646484,
2009-09-24, 02:14:04,VALID,1000.14,VALID,0,VALID,87.5575,VALID,0,VALID,22.3568,VALID,19,VALID,0.666797,
2009-09-24, 02:15:04,VALID,1000.15,VALID,0,VALID,88.0077,VALID,0,VALID,22.3373,VALID,26,VALID,0.667578,
2009-09-24, 02:16:04,VALID,1000.15,VALID,0,VALID,87.8093,VALID,0,VALID,22.3568,VALID,28,VALID,0.510156,
2009-09-24, 02:17:04,VALID,1000.12,VALID,0,VALID,87.7254,VALID,0,VALID,22.2983,VALID,28,VALID,0.620313,
2009-09-24, 02:18:04,VALID,1000.09,VALID,0,VALID,87.6491,VALID,0,VALID,22.2592,VALID,29,VALID,0.650781,
2009-09-24, 02:19:04,VALID,1000.1,VALID,0,VALID,87.6949,VALID,0,VALID,22.2397,VALID,29,VALID,0.567969,
2009-09-24, 02:20:04,VALID,1000.09,VALID,0,VALID,87.8856,VALID,0,VALID,22.2397,VALID,29,VALID,0.437109,
2009-09-24, 02:21:04,VALID,1000.13,VALID,0,VALID,87.9771,VALID,0,VALID,22.199,VALID,29,VALID,0.303516,
2009-09-24, 02:22:04,VALID,1000.1,VALID,0,VALID,88.206,VALID,0,VALID,22.1795,VALID,29,VALID,0.264844,
2009-09-24, 02:23:04,VALID,1000.12,VALID,0,VALID,88.5875,VALID,0,VALID,22.2007,VALID,29,VALID,0.536328,
2009-09-24, 02:24:04,VALID,1000.12,VALID,0,VALID,88.969,VALID,0,VALID,22.2007,VALID,29,VALID,0.518359,
2009-09-24, 02:25:04,VALID,1000.12,VALID,0,VALID,89.0224,VALID,0,VALID,22.1617,VALID,29,VALID,0.375,
2009-09-24, 02:26:04,VALID,1000.14,VALID,0,VALID,89.236,VALID,0,VALID,22.1617,VALID,29,VALID,0.387109,
2009-09-24, 02:27:04,VALID,1000.15,VALID,0,VALID,89.7625,VALID,0,VALID,22.1422,VALID,29,VALID,0.518359,
2009-09-24, 02:28:04,VALID,1000.14,VALID,0,VALID,89.9303,VALID,0,VALID,22.1015,VALID,29,VALID,0.48125,
2009-09-24, 02:29:04,VALID,1000.16,VALID,0,VALID,89.8083,VALID,0,VALID,22.1032,VALID,29,VALID,0.480078,
2009-09-24, 02:30:04,VALID,1000.15,VALID,0,VALID,89.8006,VALID,0,VALID,22.0642,VALID,29,VALID,0.29375,
2009-09-24, 02:31:04,VALID,1000.16,VALID,0,VALID,89.8388,VALID,0,VALID,22.0252,VALID,29,VALID,0.276953,
2009-09-24, 02:32:04,VALID,1000.15,VALID,0,VALID,89.7549,VALID,0,VALID,22.0057,VALID,29,VALID,0.474219,
2009-09-24, 02:33:04,VALID,1000.18,VALID,0,VALID,89.6099,VALID,0,VALID,21.9862,VALID,29,VALID,0.557422,
2009-09-24, 02:34:04,VALID,1000.18,VALID,0,VALID,89.2589,VALID,0,VALID,21.9667,VALID,39,VALID,0.758594,
2009-09-24, 02:35:04,VALID,1000.17,VALID,0,VALID,88.9385,VALID,0,VALID,21.9667,VALID,43,VALID,0.813281,
2009-09-24, 02:36:04,VALID,1000.15,VALID,0,VALID,88.4807,VALID,0,VALID,21.9862,VALID,44,VALID,0.924219,
2009-09-24, 02:37:04,VALID,1000.15,VALID,0,VALID,88.1068,VALID,0,VALID,22.0252,VALID,44,VALID,0.853516,
2009-09-24, 02:38:04,VALID,1000.12,VALID,0,VALID,87.878,VALID,0,VALID,22.0447,VALID,44,VALID,0.769922,
2009-09-24, 02:39:04,VALID,1000.12,VALID,0,VALID,88.1068,VALID,0,VALID,22.0837,VALID,44,VALID,0.703906,
2009-09-24, 02:40:04,VALID,1000.16,VALID,0,VALID,88.7706,VALID,0,VALID,22.0837,VALID,50,VALID,0.752734,
2009-09-24, 02:41:04,VALID,1000.13,VALID,0,VALID,89.0148,VALID,0,VALID,22.0837,VALID,54,VALID,0.803906,
2009-09-24, 02:42:04,VALID,1000.17,VALID,0,VALID,88.702,VALID,0,VALID,22.0447,VALID,62,VALID,0.777734,
2009-09-24, 02:43:04,VALID,1000.16,VALID,0,VALID,88.9385,VALID,0,VALID,22.004,VALID,64,VALID,0.696875,
2009-09-24, 02:44:04,VALID,1000.17,VALID,0,VALID,89.1368,VALID,0,VALID,21.9845,VALID,64,VALID,0.688672,
2009-09-24, 02:45:04,VALID,1000.15,VALID,0,VALID,89.3352,VALID,0,VALID,21.9845,VALID,64,VALID,0.738672,
2009-09-24, 02:46:04,VALID,1000.13,VALID,0,VALID,89.2437,VALID,0,VALID,21.9455,VALID,64,VALID,0.586719,
2009-09-24, 02:47:04,VALID,1000.14,VALID,0,VALID,89.3657,VALID,0,VALID,21.9472,VALID,64,VALID,0.618359,
2009-09-24, 02:48:04,VALID,1000.12,VALID,0,VALID,89.3734,VALID,0,VALID,21.9455,VALID,64,VALID,0.589063,
2009-09-24, 02:49:04,VALID,1000.14,VALID,0,VALID,89.32,VALID,0,VALID,21.9667,VALID,68,VALID,0.636719,
2009-09-24, 02:50:04,VALID,1000.09,VALID,0,VALID,89.2666,VALID,0,VALID,21.926,VALID,68,VALID,0.5625,
2009-09-24, 02:51:04,VALID,1000.11,VALID,0,VALID,89.1368,VALID,0,VALID,21.9277,VALID,68,VALID,0.402734,
2009-09-24, 02:52:04,VALID,1000.1,VALID,0,VALID,89.0606,VALID,0,VALID,21.887,VALID,68,VALID,0.457422,
2009-09-24, 02:53:04,VALID,1000.1,VALID,0,VALID,89.3581,VALID,0,VALID,21.8887,VALID,57,VALID,0.655078,
2009-09-24, 02:54:04,VALID,1000.11,VALID,0,VALID,89.6328,VALID,0,VALID,21.848,VALID,45,VALID,0.687891,
2009-09-24, 02:55:04,VALID,1000.11,VALID,0,VALID,89.9303,VALID,0,VALID,21.848,VALID,40,VALID,0.701953,
2009-09-24, 02:56:04,VALID,1000.07,VALID,0,VALID,89.7549,VALID,0,VALID,21.8675,VALID,40,VALID,0.693359,
2009-09-24, 02:57:04,VALID,1000.03,VALID,0,VALID,89.6175,VALID,0,VALID,21.887,VALID,40,VALID,0.806641,
2009-09-24, 02:58:04,VALID,1000.02,VALID,0,VALID,89.2971,VALID,0,VALID,21.926,VALID,40,VALID,0.8,
2009-09-24, 02:59:04,VALID,999.997,VALID,0,VALID,88.9309,VALID,0,VALID,21.9455,VALID,47,VALID,0.836719,
2009-09-24, 03:00:04,VALID,1000.01,VALID,0,VALID,88.8317,VALID,0,VALID,21.965,VALID,47,VALID,0.807031,
2009-09-24, 03:01:04,VALID,1000.02,VALID,0,VALID,88.702,VALID,0,VALID,22.004,VALID,47,VALID,0.764063,
2009-09-24, 03:02:04,VALID,1000,VALID,0,VALID,88.5341,VALID,0,VALID,22.004,VALID,47,VALID,0.651953,
2009-09-24, 03:03:04,VALID,999.98,VALID,0,VALID,88.4426,VALID,0,VALID,22.0235,VALID,47,VALID,0.589453,
2009-09-24, 03:04:04,VALID,999.996,VALID,0,VALID,88.3434,VALID,0,VALID,22.0447,VALID,47,VALID,0.490625,
2009-09-24, 03:05:04,VALID,999.974,VALID,0,VALID,88.206,VALID,0,VALID,22.0252,VALID,47,VALID,0.55625,
2009-09-24, 03:06:04,VALID,999.949,VALID,0,VALID,88.0992,VALID,0,VALID,21.9845,VALID,47,VALID,0.525,
2009-09-24, 03:07:04,VALID,999.913,VALID,0,VALID,88.0458,VALID,0,VALID,21.9862,VALID,47,VALID,0.520703,
2009-09-24, 03:08:04,VALID,999.912,VALID,0,VALID,88.5875,VALID,0,VALID,21.9472,VALID,47,VALID,0.650391,
2009-09-24, 03:09:04,VALID,999.898,VALID,0,VALID,89.1445,VALID,0,VALID,21.926,VALID,47,VALID,0.65,
2009-09-24, 03:10:04,VALID,999.912,VALID,0,VALID,89.1521,VALID,0,VALID,21.9277,VALID,47,VALID,0.537109,
2009-09-24, 03:11:04,VALID,999.906,VALID,0,VALID,89.1521,VALID,0,VALID,21.9065,VALID,47,VALID,0.367188,
2009-09-24, 03:12:04,VALID,999.927,VALID,0,VALID,89.2284,VALID,0,VALID,21.9082,VALID,47,VALID,0.272656,
2009-09-24, 03:13:04,VALID,999.901,VALID,0,VALID,89.2589,VALID,0,VALID,21.887,VALID,47,VALID,0.287109,
2009-09-24, 03:14:04,VALID,999.902,VALID,0,VALID,89.1521,VALID,0,VALID,21.848,VALID,47,VALID,0.283594,
2009-09-24, 03:15:04,VALID,999.878,VALID,0,VALID,89.381,VALID,0,VALID,21.8675,VALID,47,VALID,0.387109,
2009-09-24, 03:16:04,VALID,999.869,VALID,0,VALID,89.5336,VALID,0,VALID,21.887,VALID,47,VALID,0.3125,
2009-09-24, 03:17:04,VALID,999.848,VALID,0,VALID,89.6557,VALID,0,VALID,21.887,VALID,47,VALID,0.321484,
2009-09-24, 03:18:04,VALID,999.869,VALID,0,VALID,89.7091,VALID,0,VALID,21.887,VALID,47,VALID,0.326953,
2009-09-24, 03:19:04,VALID,999.848,VALID,0,VALID,89.7625,VALID,0,VALID,21.887,VALID,47,VALID,0.336328,
2009-09-24, 03:20:04,VALID,999.87,VALID,0,VALID,89.8922,VALID,0,VALID,21.9082,VALID,47,VALID,0.232812,
2009-09-24, 03:21:04,VALID,999.858,VALID,0,VALID,89.9609,VALID,0,VALID,21.8675,VALID,47,VALID,0.143359,
2009-09-24, 03:22:04,VALID,999.829,VALID,0,VALID,89.8846,VALID,0,VALID,21.8285,VALID,47,VALID,0.201562,
2009-09-24, 03:23:04,VALID,999.89,VALID,0,VALID,89.7472,VALID,0,VALID,21.7911,VALID,47,VALID,0.259766,
2009-09-24, 03:24:04,VALID,999.858,VALID,0,VALID,89.999,VALID,0,VALID,21.7521,VALID,47,VALID,0.421484,
2009-09-24, 03:25:04,VALID,999.844,VALID,0,VALID,90.0753,VALID,0,VALID,21.7326,VALID,46,VALID,0.543359,
2009-09-24, 03:26:04,VALID,999.855,VALID,0,VALID,89.9227,VALID,0,VALID,21.692,VALID,46,VALID,0.382422,
2009-09-24, 03:27:04,VALID,999.874,VALID,0,VALID,89.7625,VALID,0,VALID,21.653,VALID,46,VALID,0.590625,
2009-09-24, 03:28:04,VALID,999.842,VALID,0,VALID,89.9837,VALID,0,VALID,21.6335,VALID,46,VALID,0.604688,
2009-09-24, 03:29:04,VALID,999.857,VALID,0,VALID,89.8922,VALID,0,VALID,21.6335,VALID,46,VALID,0.664453,
2009-09-24, 03:30:04,VALID,999.86,VALID,0,VALID,89.6862,VALID,0,VALID,21.6335,VALID,46,VALID,0.739844,
2009-09-24, 03:31:04,VALID,999.872,VALID,0,VALID,89.6404,VALID,0,VALID,21.653,VALID,46,VALID,0.763281,
2009-09-24, 03:32:04,VALID,999.853,VALID,0,VALID,89.1674,VALID,0,VALID,21.6725,VALID,46,VALID,0.774219,
2009-09-24, 03:33:04,VALID,999.843,VALID,0,VALID,88.8851,VALID,0,VALID,21.6725,VALID,46,VALID,0.728516,
2009-09-24, 03:34:04,VALID,999.826,VALID,0,VALID,88.9995,VALID,0,VALID,21.6725,VALID,46,VALID,0.685547,
2009-09-24, 03:35:04,VALID,999.831,VALID,0,VALID,88.8164,VALID,0,VALID,21.6725,VALID,48,VALID,0.699609,
2009-09-24, 03:36:04,VALID,999.882,VALID,0,VALID,88.7706,VALID,0,VALID,21.692,VALID,48,VALID,0.581641,
2009-09-24, 03:37:04,VALID,999.894,VALID,0,VALID,88.6257,VALID,0,VALID,21.653,VALID,48,VALID,0.528125,
2009-09-24, 03:38:04,VALID,999.898,VALID,0,VALID,88.5951,VALID,0,VALID,21.6335,VALID,48,VALID,0.378516,
2009-09-24, 03:39:04,VALID,999.903,VALID,0,VALID,88.8698,VALID,0,VALID,21.5945,VALID,48,VALID,0.352344,
2009-09-24, 03:40:04,VALID,999.917,VALID,0,VALID,89.0758,VALID,0,VALID,21.5766,VALID,48,VALID,0.302734,
2009-09-24, 03:41:04,VALID,999.919,VALID,0,VALID,89.4497,VALID,0,VALID,21.5555,VALID,48,VALID,0.285937,
2009-09-24, 03:42:04,VALID,999.915,VALID,0,VALID,89.5107,VALID,0,VALID,21.5555,VALID,48,VALID,0.360547,
2009-09-24, 03:43:04,VALID,999.897,VALID,0,VALID,89.7243,VALID,0,VALID,21.5766,VALID,48,VALID,0.380859,
2009-09-24, 03:44:04,VALID,999.882,VALID,0,VALID,89.9303,VALID,0,VALID,21.536,VALID,48,VALID,0.403516,
2009-09-24, 03:45:04,VALID,999.894,VALID,0,VALID,90.0448,VALID,0,VALID,21.5766,VALID,48,VALID,0.363672,
2009-09-24, 03:46:04,VALID,999.885,VALID,0,VALID,90.0829,VALID,0,VALID,21.5766,VALID,48,VALID,0.316016,